This is the latest recevied weather packets stored in our database for station/object WE3WEE. If no packets are shown the sender has not sent any weather packets the latest 10 day(s).
| Time | Temp. | Humidity | Pressure | Rain* | Wind** | Luminosity | Snow |
|---|---|---|---|---|---|---|---|
| 1777896658 | 10.56° C | 63% | 1012.8 hPa | 0 mm | - | - | - |
| 1777896355 | 10.56° C | 60% | 1012.8 hPa | 0 mm | - | - | - |
| 1777896053 | 10.56° C | 66% | 1012.8 hPa | 0 mm | - | - | - |
| 1777895751 | 10.56° C | 67% | 1012.8 hPa | 0 mm | - | - | - |
| 1777895448 | 11.11° C | 65% | 1012.8 hPa | 0 mm | - | - | - |
| 1777895146 | 11.11° C | 61% | 1012.8 hPa | 0 mm | - | - | - |
| 1777894843 | 11.11° C | 64% | 1012.8 hPa | 0 mm | - | - | - |
| 1777894539 | 10.56° C | 70% | 1012.8 hPa | 0 mm | - | - | - |
| 1777894237 | 9.44° C | 70% | 1012.8 hPa | 0 mm | - | - | - |
| 1777893934 | 9.44° C | 71% | 1012.8 hPa | 0 mm | - | - | - |
| 1777893630 | 8.33° C | 72% | 1013.8 hPa | 0 mm | - | - | - |
| 1777893327 | 6.67° C | 76% | 1013.8 hPa | 0 mm | - | - | - |
| 1777893022 | 6.11° C | 80% | 1013.8 hPa | 0 mm | - | - | - |
| 1777892720 | 5.56° C | 78% | 1012.8 hPa | 0 mm | - | - | - |
| 1777892416 | 4.44° C | 79% | 1012.8 hPa | 0 mm | - | - | - |
| 1777892112 | 3.89° C | 84% | 1012.8 hPa | 0 mm | - | - | - |
| 1777891809 | 3.33° C | 85% | 1012.8 hPa | 0 mm | - | - | - |
| 1777891506 | 2.78° C | 84% | 1012.8 hPa | 0 mm | - | - | - |
| 1777891202 | 2.22° C | 87% | 1012.8 hPa | 0 mm | - | - | - |
| 1777890896 | 2.22° C | 88% | 1013.8 hPa | 0 mm | - | - | - |
| 1777890592 | 1.67° C | 88% | 1013.8 hPa | 0 mm | - | - | - |
| 1777890287 | 2.22° C | 88% | 1013.8 hPa | 0 mm | - | - | - |
| 1777889984 | 2.22° C | 87% | 1012.8 hPa | 0 mm | - | - | - |
| 1777889682 | 2.22° C | 86% | 1012.8 hPa | 0 mm | - | - | - |
| 1777889379 | 1.67° C | 88% | 1012.8 hPa | 0 mm | - | - | - |
* Rain latest hour (hover to see other rain measurements)
** Current wind speed in m/s (hover to see current wind gust speed)